TimeEST,TemperatureF,Dew PointF,Humidity,Sea Level PressureIn,VisibilityMPH,Wind Direction,Wind SpeedMPH,Gust SpeedMPH,PrecipitationIn,Events,Conditions,WindDirDegrees,DateUTC
12:01 AM,19.4,17.6,93,29.55,1.8,NW,4.6,-,0.00,Snow,Light Snow,310,2012-12-30 05:01:00
12:51 AM,18.0,17.1,96,29.61,1.8,NNW,8.1,-,0.01,Snow,Light Snow,330,2012-12-30 05:51:00
1:05 AM,17.6,15.8,93,29.55,2.0,NW,4.6,-,0.00,Snow,Light Snow,310,2012-12-30 06:05:00
1:17 AM,17.6,15.8,93,29.55,2.5,NNW,6.9,-,0.00,Snow,Light Snow,340,2012-12-30 06:17:00
1:51 AM,16.0,14.0,92,29.62,3.0,NNW,8.1,-,0.00,Snow,Light Snow,330,2012-12-30 06:51:00
2:17 AM,14.0,12.2,93,29.56,5.0,NW,10.4,-,0.00,,Overcast,310,2012-12-30 07:17:00
2:51 AM,14.0,10.4,86,29.58,5.0,NW,10.4,20.7,N/A,,Overcast,310,2012-12-30 07:51:00
3:27 AM,12.2,10.4,92,29.59,5.0,NW,12.7,16.1,N/A,,Overcast,310,2012-12-30 08:27:00
3:37 AM,12.2,8.6,85,29.60,5.0,NW,11.5,24.2,N/A,,Overcast,320,2012-12-30 08:37:00
3:51 AM,12.2,8.6,85,29.60,4.0,NNW,10.4,20.7,N/A,Snow,Light Snow,330,2012-12-30 08:51:00
4:51 AM,12.0,8.1,84,29.69,7.0,WNW,11.5,19.6,0.00,,Scattered Clouds,300,2012-12-30 09:51:00
5:51 AM,12.0,7.0,80,29.72,10.0,NW,11.5,-,N/A,,Overcast,310,2012-12-30 10:51:00
6:04 AM,12.2,8.6,85,29.66,9.0,WNW,8.1,19.6,N/A,,Overcast,300,2012-12-30 11:04:00
6:28 AM,12.2,8.6,85,29.66,10.0,Variable,5.8,-,N/A,,Mostly Cloudy,0,2012-12-30 11:28:00
6:51 AM,12.2,8.6,85,29.66,7.0,WNW,9.2,-,N/A,Snow,Light Snow,300,2012-12-30 11:51:00
7:20 AM,12.2,10.4,92,29.67,4.0,WNW,19.6,26.5,0.00,Snow,Light Snow,300,2012-12-30 12:20:00
7:43 AM,12.2,10.4,92,29.68,3.0,WNW,17.3,-,0.00,Snow,Light Snow,300,2012-12-30 12:43:00
7:51 AM,12.9,10.0,88,29.75,4.0,WNW,16.1,23.0,0.00,Snow,Light Snow,300,2012-12-30 12:51:00
8:12 AM,12.2,10.4,92,29.69,2.0,NW,17.3,27.6,0.00,Snow,Light Snow,310,2012-12-30 13:12:00
8:43 AM,12.2,10.4,92,29.71,1.8,NW,17.3,26.5,0.00,Snow,Light Snow,310,2012-12-30 13:43:00
8:51 AM,12.9,10.0,88,29.78,1.5,NW,15.0,27.6,0.00,Snow,Light Snow,310,2012-12-30 13:51:00
9:03 AM,12.2,10.4,92,29.72,1.5,NW,18.4,28.8,0.00,Snow,Light Snow,310,2012-12-30 14:03:00
9:37 AM,12.2,8.6,85,29.74,1.8,NW,17.3,24.2,0.00,Snow,Light Snow,320,2012-12-30 14:37:00
9:51 AM,12.9,10.0,88,29.81,2.5,NW,17.3,26.5,0.00,Snow,Light Snow,310,2012-12-30 14:51:00
10:03 AM,12.2,8.6,85,29.75,3.0,NW,13.8,21.9,0.00,Snow,Light Snow,310,2012-12-30 15:03:00
10:13 AM,14.0,8.6,79,29.74,2.0,WNW,24.2,33.4,0.00,Snow,Light Snow,300,2012-12-30 15:13:00
10:19 AM,12.2,8.6,85,29.74,1.2,WNW,27.6,34.5,0.00,Snow,Light Snow,300,2012-12-30 15:19:00
10:27 AM,12.2,8.6,85,29.74,0.8,NW,21.9,34.5,0.00,Snow,Light Snow,310,2012-12-30 15:27:00
10:42 AM,12.2,8.6,85,29.74,0.8,WNW,26.5,36.8,0.00,Snow,Light Snow,290,2012-12-30 15:42:00
10:51 AM,12.9,8.1,81,29.82,0.8,WNW,25.3,40.3,0.00,Snow,Light Snow,300,2012-12-30 15:51:00
11:33 AM,12.2,6.8,79,29.76,1.2,NW,24.2,34.5,0.01,Snow,Light Snow,310,2012-12-30 16:33:00
11:51 AM,12.0,7.0,80,29.84,1.2,WNW,21.9,38.0,0.01,Snow,Light Snow,300,2012-12-30 16:51:00
11:57 AM,12.2,6.8,79,29.77,2.0,WNW,20.7,32.2,0.00,Snow,Light Snow,300,2012-12-30 16:57:00
12:12 PM,12.2,6.8,79,29.77,3.0,NW,18.4,29.9,0.00,Snow,Light Snow,310,2012-12-30 17:12:00
12:35 PM,12.2,6.8,79,29.77,2.5,NNW,18.4,31.1,0.00,Snow,Light Snow,330,2012-12-30 17:35:00
12:51 PM,12.0,7.0,80,29.84,1.5,NW,21.9,34.5,0.00,Snow,Light Snow,310,2012-12-30 17:51:00
1:03 PM,12.2,6.8,79,29.77,2.0,NW,19.6,33.4,0.00,Snow,Light Snow,320,2012-12-30 18:03:00
1:18 PM,12.2,8.6,85,29.77,3.0,WNW,17.3,24.2,0.00,Snow,Light Snow,300,2012-12-30 18:18:00
1:51 PM,12.9,7.0,77,29.86,2.5,NW,18.4,29.9,0.00,Snow,Light Snow,310,2012-12-30 18:51:00
2:14 PM,12.2,6.8,79,29.80,3.0,WNW,16.1,26.5,0.00,Snow,Light Snow,300,2012-12-30 19:14:00
2:51 PM,12.0,7.0,80,29.89,4.0,NW,13.8,31.1,0.00,,Overcast,310,2012-12-30 19:51:00
3:51 PM,12.0,6.1,77,29.93,8.0,WNW,16.1,29.9,0.00,,Overcast,290,2012-12-30 20:51:00
4:51 PM,12.0,5.0,73,29.97,8.0,WNW,15.0,24.2,0.00,,Overcast,290,2012-12-30 21:51:00
5:51 PM,10.9,5.0,77,30.01,10.0,NW,12.7,24.2,0.00,,Overcast,310,2012-12-30 22:51:00
6:51 PM,10.0,5.0,80,30.04,9.0,WNW,19.6,29.9,N/A,,Overcast,300,2012-12-30 23:51:00
7:51 PM,10.9,5.0,77,30.07,6.0,WNW,16.1,25.3,0.00,,Overcast,300,2012-12-31 00:51:00
8:38 PM,10.4,6.8,85,29.99,2.5,NW,15.0,25.3,0.00,Snow,Light Snow,310,2012-12-31 01:38:00
8:51 PM,10.9,6.1,81,30.07,2.5,WNW,18.4,29.9,0.00,,Overcast,300,2012-12-31 01:51:00
9:25 PM,10.4,6.8,85,29.99,4.0,NNW,12.7,24.2,0.00,,Overcast,330,2012-12-31 02:25:00
9:51 PM,10.9,5.0,77,30.07,9.0,NW,19.6,27.6,0.00,,Overcast,310,2012-12-31 02:51:00
10:42 PM,10.4,5.0,79,30.01,9.0,NNW,17.3,26.5,N/A,,Scattered Clouds,330,2012-12-31 03:42:00
10:51 PM,10.4,5.0,79,30.01,10.0,NW,19.6,29.9,N/A,,Partly Cloudy,320,2012-12-31 03:51:00
11:51 PM,12.9,7.0,77,30.07,5.0,NW,24.2,36.8,N/A,Snow,Blowing Snow,320,2012-12-31 04:51:00